Wind_Speed
21 21 20 19 18 18 17 18 18 17 17 16 15 14 13 13 13 14 15 17 18 18 19 20 21 21 21 21 21 21 20 19 18 18 18 18 20 21 24 26 29 32 36 38
21 21 19 18 17 17 16 16 16 15 14 13 12 11 10 11 12 13 15 16 17 19 19 20 21 21 22 21 21 21 20 19 18 17 17 17 17 18 20 22 24 28 31 34
22 20 18 16 16 15 14 13 13 12 10 9 9 8 9 10 11 13 14 16 17 18 19 20 21 21 21 21 21 21 20 19 18 17 16 16 16 16 17 18 20 23 26 29
21 18 16 15 14 13 12 10 9 8 7 7 7 7 9 10 11 12 14 15 17 18 19 20 20 21 21 22 22 21 21 20 19 18 16 16 15 15 15 15 16 19 22 25
18 16 14 13 11 10 8 7 6 5 4 4 6 7 8 9 10 12 13 15 17 18 19 20 20 21 21 21 22 22 22 21 19 18 17 17 16 15 14 14 14 16 18 21
16 14 13 11 9 7 5 3 2 2 3 4 5 6 7 9 10 11 13 15 16 18 19 19 20 21 22 22 22 23 22 21 20 19 18 17 17 16 15 14 14 14 15 18
14 13 10 9 7 5 3 1 1 2 3 4 5 6 7 8 10 12 13 15 16 17 18 19 20 21 22 23 23 23 23 22 22 21 20 19 18 17 16 15 14 14 14 16
13 11 9 7 6 4 4 3 3 3 3 4 5 6 7 8 10 12 13 14 16 17 18 19 21 22 22 23 23 23 23 23 23 22 21 20 19 18 17 16 15 14 14 15
12 10 9 7 6 6 5 5 4 4 4 5 5 7 8 9 11 12 14 15 16 17 18 19 20 21 23 23 24 24 24 24 23 23 23 22 21 21 19 17 16 15 15 15
11 9 8 8 8 7 6 6 5 5 5 5 6 7 8 9 10 12 14 15 16 17 18 19 20 22 23 24 24 24 24 24 24 24 24 23 22 22 21 19 18 17 16 15
11 9 9 9 9 8 7 6 6 5 5 5 5 6 8 9 10 12 13 15 16 17 18 19 20 22 23 23 24 25 25 25 25 25 25 24 23 23 22 21 20 18 17 16
11 10 9 9 8 7 7 6 5 5 4 4 5 6 7 9 10 12 13 15 16 17 18 19 20 21 22 23 24 25 25 25 26 26 26 25 24 23 23 22 22 20 19 18
11 11 11 9 8 8 7 6 5 5 4 4 5 6 7 9 10 12 13 14 16 16 17 18 20 21 22 23 24 25 25 26 26 27 27 26 26 25 24 23 23 22 21 20
11 11 11 10 8 7 6 6 5 4 4 4 4 5 7 8 10 11 13 14 16 16 17 18 19 20 21 22 23 24 25 25 26 27 27 27 27 26 25 25 24 24 23 21
12 11 10 9 8 6 5 5 4 3 2 2 3 5 6 8 10 11 13 14 15 17 18 18 19 20 21 22 22 23 24 25 25 26 27 27 27 27 27 26 25 25 24 23
11 10 9 8 7 6 5 4 3 2 1 1 2 4 6 8 10 11 13 14 15 16 17 18 19 19 20 21 22 23 23 24 25 26 26 27 27 28 28 27 26 26 25 24
11 10 8 7 6 5 4 3 2 1 1 2 4 5 7 9 10 12 13 15 16 16 17 18 19 19 20 20 21 22 23 24 25 25 26 27 27 28 28 28 28 27 26 25
10 9 8 7 6 6 5 4 4 3 4 5 6 8 9 11 12 13 15 16 16 17 18 18 19 20 20 21 21 22 23 23 24 25 26 27 27 28 28 28 28 28 27 26
9 9 8 8 7 7 6 6 6 7 7 8 9 10 11 12 14 15 16 16 17 18 18 19 19 20 21 21 22 22 23 24 24 25 26 27 27 28 28 28 28 29 28 27
10 10 10 9 9 9 9 9 9 10 10 10 11 12 13 14 15 16 17 17 17 18 18 19 20 20 21 21 22 22 23 23 24 25 26 26 27 27 28 28 28 28 28 28
11 11 11 12 12 11 11 12 12 13 12 13 13 14 15 16 16 17 17 18 18 19 19 20 20 21 21 22 22 23 23 24 24 25 25 26 26 26 27 27 27 28 28 27
14 14 14 14 14 14 14 14 15 15 15 15 15 16 16 17 18 18 18 18 19 19 20 21 21 22 22 23 23 24 24 24 24 24 25 25 25 26 26 26 26 27 27 27
16 16 16 16 17 16 16 16 16 17 17 17 17 17 18 19 19 19 19 20 20 21 21 22 23 24 24 24 24 24 24 24 24 25 25 25 25 25 25 25 25 25 25 25
18 18 18 18 18 18 18 18 18 18 18 18 18 19 19 20 20 21 21 22 22 23 24 25 25 26 26 26 26 26 25 25 25 25 25 25 25 25 25 24 25 25 24 24
19 19 19 19 20 20 20 20 20 20 20 20 20 20 20 21 22 23 23 24 25 26 27 27 28 28 28 28 28 27 27 26 26 26 25 25 25 25 24 24 24 24 24 23
21 21 21 21 21 21 21 21 21 21 21 21 21 22 22 24 24 25 26 27 28 28 29 30 30 30 30 30 30 29 28 27 27 27 27 26 26 25 25 24 24 23 23 23
Wind_Direction
240 246 253 261 269 277 285 294 300 305 309 313 317 321 327 334 340 344 346 346 346 345 344 343 342 341 339 338 337 335 331 325 319 312 304 295 286 278 272 266 259 255 252 250
237 243 251 261 270 279 288 296 301 306 312 317 323 330 337 346 350 351 352 353 353 351 349 349 349 348 347 345 343 342 338 334 330 324 316 308 299 289 279 270 263 256 253 251
236 243 251 260 269 280 290 297 303 310 317 324 332 342 349 355 356 357 356 356 355 355 354 354 353 353 353 352 350 349 346 342 338 332 325 318 311 301 290 279 269 262 256 252
233 242 250 259 269 281 289 296 303 312 322 335 348 355 359 2 3 1 360 359 358 358 357 357 357 357 356 356 356 354 351 348 344 341 336 328 322 316 305 292 280 270 262 256
233 240 249 258 269 277 286 295 305 321 342 1 5 6 7 7 6 4 3 2 1 1 0 360 360 360 359 359 359 358 356 354 351 349 346 341 335 327 319 308 294 282 270 262
229 236 245 254 262 268 276 284 324 11 24 20 12 15 16 12 9 7 5 4 5 5 4 5 5 5 5 3 2 2 2 1 359 356 353 349 344 338 329 319 307 293 281 271
225 231 238 245 247 242 224 188 93 58 42 32 28 31 25 18 14 10 9 10 9 9 9 10 9 8 8 8 7 6 6 6 5 2 358 354 350 344 337 328 318 306 293 280
220 225 228 229 218 196 168 142 120 97 73 53 45 38 30 25 21 19 17 15 14 13 12 12 11 10 10 9 9 8 8 8 7 6 4 1 357 351 345 338 329 318 305 291
213 218 215 206 190 172 155 135 121 105 87 69 54 44 37 31 29 25 21 18 17 17 15 14 13 12 11 10 10 9 9 9 8 7 6 5 3 359 353 347 340 330 318 304
205 206 198 186 173 162 150 137 127 112 95 74 56 44 37 33 30 25 23 21 20 19 17 15 13 12 12 12 12 12 11 10 9 8 6 4 2 1 359 355 349 341 331 320
194 193 185 176 169 159 149 138 126 113 98 79 58 45 40 34 28 25 23 21 19 17 14 13 12 12 12 12 12 13 12 12 11 10 8 6 3 1 0 357 353 348 342 333
185 180 174 169 163 156 145 134 126 118 102 79 63 50 39 33 29 26 22 19 16 15 13 12 12 12 12 12 12 12 12 12 11 11 10 9 7 4 2 359 356 351 346 340
176 172 168 164 159 152 142 132 123 115 101 80 61 48 39 33 28 23 18 15 13 12 12 11 11 11 11 11 11 12 12 12 12 11 10 10 9 7 5 2 359 357 352 347
168 166 166 164 159 153 145 135 127 118 103 81 58 41 30 23 20 16 13 11 9 8 8 9 9 9 9 9 9 10 11 12 11 11 11 11 10 8 6 3 2 0 357 353
164 163 163 162 160 157 151 144 137 127 108 71 35 19 12 8 6 4 4 4 4 4 4 4 4 4 5 6 6 7 8 9 9 9 10 10 10 9 7 5 3 2 359 357
165 164 163 165 164 163 161 158 157 156 152 4 354 354 353 353 354 355 356 357 357 358 359 359 359 359 359 0 2 3 4 5 5 6 6 7 8 8 7 6 5 3 2 1
172 172 174 176 182 188 192 198 208 233 279 315 327 333 337 339 342 344 346 348 350 352 354 355 355 355 355 355 356 357 358 360 1 2 3 3 4 5 5 5 5 5 4 3
180 183 188 196 205 215 222 231 248 268 286 301 311 318 324 328 332 335 338 340 342 344 346 347 348 350 351 351 352 353 354 354 356 357 359 0 1 2 3 3 4 4 4 3
197 202 208 217 224 230 238 251 266 277 286 296 303 311 317 322 325 329 332 334 336 337 338 340 342 343 345 346 347 348 350 351 352 353 355 356 358 359 0 1 2 3 3 3
214 219 224 230 238 244 251 260 268 277 285 293 299 307 313 317 321 325 326 327 329 331 333 335 336 338 339 340 342 344 345 346 348 349 350 352 354 356 358 359 0 2 3 4
227 231 236 241 247 252 257 263 269 275 283 290 297 304 309 313 316 318 320 321 324 326 329 330 331 332 333 335 336 338 340 341 343 344 346 348 349 352 354 356 358 360 2 3
238 241 244 249 254 257 261 265 269 275 281 288 294 300 304 307 310 313 315 318 320 323 324 325 326 327 328 330 331 332 334 336 337 338 340 342 344 346 349 352 354 356 358 1
245 248 250 254 257 261 263 266 271 276 281 286 291 296 300 303 307 310 312 315 317 318 319 321 321 322 323 324 325 327 328 330 331 332 333 335 338 340 343 346 349 351 353 356
249 252 253 255 258 261 264 268 272 276 280 284 288 293 296 300 303 306 309 311 312 313 314 315 316 316 317 318 320 321 322 323 324 325 326 328 330 332 335 339 342 345 347 350
252 254 256 257 259 262 264 267 271 274 278 281 285 290 293 297 300 303 306 308 309 310 311 311 311 311 312 313 314 316 317 317 318 318 319 320 322 324 326 329 333 337 340 342
254 256 257 258 260 262 265 267 270 273 276 280 284 288 292 295 298 301 303 305 306 307 307 306 306 307 307 309 310 311 312 313 314 314 314 315 316 317 318 320 323 326 330 333
Height
5897 5900 5900 5901 5901 5901 5900 5899 5897 5894 5892 5889 5886 5884 5881 5878 5875 5873 5869 5866 5862 5859 5855 5850 5846 5842 5837 5833 5828 5824 5819 5816 5812 5809 5806 5804 5802 5801 5801 5800 5801 5802 5803 5806
5894 5895 5897 5897 5897 5897 5897 5895 5893 5891 5889 5887 5884 5882 5879 5876 5874 5871 5868 5865 5861 5857 5853 5849 5845 5840 5835 5830 5826 5821 5817 5813 5809 5805 5802 5800 5797 5796 5795 5794 5794 5795 5796 5797
5890 5892 5893 5894 5894 5894 5893 5892 5890 5888 5886 5884 5883 5881 5878 5876 5873 5870 5867 5864 5860 5857 5852 5848 5843 5839 5834 5829 5824 5819 5815 5810 5806 5803 5799 5796 5794 5792 5790 5789 5788 5788 5789 5790
5886 5888 5890 5891 5891 5891 5890 5889 5888 5886 5885 5883 5882 5880 5877 5874 5872 5869 5866 5863 5860 5856 5852 5847 5843 5838 5833 5828 5823 5818 5814 5809 5805 5801 5797 5794 5791 5788 5786 5784 5783 5783 5783 5784
5884 5886 5887 5888 5888 5888 5887 5887 5886 5884 5883 5882 5880 5879 5878 5874 5872 5869 5866 5863 5859 5855 5851 5847 5843 5838 5833 5828 5823 5818 5813 5808 5803 5799 5795 5792 5788 5785 5783 5781 5779 5778 5778 5778
5882 5883 5885 5885 5886 5886 5885 5885 5884 5883 5882 5882 5880 5878 5877 5874 5871 5869 5866 5862 5859 5855 5851 5847 5842 5838 5833 5828 5823 5817 5812 5807 5803 5798 5794 5790 5787 5783 5780 5778 5776 5774 5773 5772
5879 5881 5882 5883 5883 5884 5884 5884 5884 5883 5882 5881 5879 5877 5877 5873 5871 5868 5865 5862 5859 5855 5851 5847 5842 5838 5833 5828 5823 5817 5812 5807 5802 5798 5793 5789 5785 5782 5778 5775 5772 5770 5769 5768
5878 5879 5880 5881 5882 5882 5882 5883 5883 5883 5882 5880 5878 5877 5876 5873 5871 5868 5865 5862 5859 5855 5851 5847 5842 5838 5833 5828 5823 5818 5813 5807 5803 5798 5793 5789 5784 5780 5776 5773 5769 5767 5765 5763
5876 5877 5878 5879 5880 5881 5881 5881 5882 5882 5881 5880 5879 5877 5876 5873 5871 5868 5865 5862 5859 5855 5851 5847 5843 5838 5834 5829 5824 5818 5813 5808 5803 5798 5793 5788 5783 5779 5775 5771 5767 5764 5761 5758
5874 5876 5877 5877 5879 5880 5881 5880 5881 5881 5880 5880 5879 5877 5876 5873 5871 5868 5865 5862 5859 5856 5852 5848 5844 5839 5835 5830 5824 5819 5814 5809 5803 5798 5793 5788 5783 5778 5774 5769 5765 5761 5758 5755
5872 5875 5876 5877 5878 5879 5880 5880 5880 5880 5880 5880 5879 5880 5876 5873 5871 5868 5866 5862 5859 5856 5852 5848 5844 5840 5835 5830 5825 5820 5815 5809 5804 5799 5793 5788 5783 5778 5773 5768 5764 5760 5755 5751
5871 5873 5875 5876 5877 5878 5879 5879 5880 5880 5880 5879 5878 5881 5875 5873 5871 5868 5866 5863 5859 5856 5852 5848 5844 5840 5836 5831 5826 5821 5816 5810 5805 5799 5794 5788 5783 5778 5772 5768 5763 5758 5753 5749
5870 5873 5875 5876 5879 5879 5878 5878 5879 5879 5879 5878 5878 5880 5875 5873 5871 5868 5866 5863 5859 5856 5853 5849 5845 5840 5836 5832 5827 5822 5817 5811 5806 5800 5795 5789 5783 5778 5772 5767 5762 5757 5752 5746
5870 5872 5875 5877 5877 5877 5878 5878 5878 5879 5878 5878 5878 5877 5875 5873 5870 5868 5865 5862 5859 5856 5852 5849 5845 5841 5836 5832 5827 5823 5817 5812 5807 5801 5796 5790 5784 5778 5773 5767 5761 5756 5750 5745
5870 5872 5873 5875 5876 5877 5877 5878 5878 5878 5878 5878 5877 5876 5874 5872 5870 5868 5865 5862 5859 5856 5852 5849 5845 5841 5836 5832 5828 5823 5818 5813 5808 5802 5797 5791 5785 5779 5773 5767 5761 5755 5750 5744
5869 5871 5873 5874 5875 5876 5877 5877 5877 5877 5877 5876 5876 5875 5873 5871 5869 5867 5864 5862 5859 5855 5852 5848 5844 5840 5836 5832 5828 5823 5818 5813 5808 5803 5797 5792 5786 5780 5774 5767 5761 5755 5749 5743
5869 5871 5872 5874 5874 5875 5876 5876 5876 5876 5876 5875 5875 5874 5872 5870 5868 5866 5863 5861 5858 5854 5851 5847 5843 5839 5835 5831 5827 5823 5818 5813 5808 5803 5798 5792 5786 5780 5774 5768 5761 5755 5749 5743
5868 5870 5871 5872 5874 5874 5877 5875 5875 5875 5874 5874 5873 5872 5870 5868 5866 5864 5862 5859 5856 5853 5849 5846 5842 5838 5834 5830 5826 5822 5817 5813 5808 5803 5798 5792 5786 5780 5774 5768 5762 5755 5749 5743
5867 5869 5870 5871 5871 5872 5873 5873 5873 5872 5872 5871 5870 5869 5868 5866 5864 5862 5859 5856 5854 5851 5847 5844 5840 5837 5833 5829 5825 5821 5816 5812 5807 5802 5797 5792 5786 5780 5775 5769 5762 5756 5749 5743
5865 5866 5868 5868 5869 5870 5871 5870 5869 5870 5869 5868 5867 5866 5865 5863 5861 5860 5856 5854 5851 5848 5845 5841 5838 5834 5831 5827 5823 5819 5815 5810 5806 5801 5796 5791 5785 5780 5774 5769 5763 5756 5750 5744
5863 5863 5864 5865 5865 5866 5867 5866 5866 5867 5867 5865 5864 5862 5861 5859 5858 5856 5853 5850 5848 5845 5842 5838 5835 5831 5828 5824 5820 5816 5812 5808 5804 5799 5794 5790 5784 5779 5774 5768 5763 5757 5751 5745
5859 5860 5860 5861 5862 5864 5862 5862 5863 5863 5861 5860 5859 5858 5857 5855 5854 5851 5849 5846 5844 5841 5838 5834 5831 5828 5824 5821 5817 5813 5810 5806 5801 5797 5792 5788 5783 5778 5773 5768 5762 5757 5751 5745
5855 5856 5856 5858 5859 5858 5857 5857 5857 5857 5856 5856 5855 5854 5852 5851 5849 5847 5844 5842 5839 5836 5833 5830 5827 5824 5820 5817 5813 5810 5806 5802 5798 5794 5789 5785 5781 5776 5771 5767 5762 5756 5751 5746
5849 5850 5851 5851 5852 5852 5852 5852 5852 5851 5851 5850 5849 5848 5847 5845 5843 5841 5839 5837 5834 5831 5828 5825 5822 5818 5815 5812 5808 5805 5801 5798 5794 5790 5786 5782 5777 5773 5769 5765 5760 5755 5750 5746
5844 5844 5844 5845 5846 5845 5845 5846 5846 5845 5845 5844 5844 5842 5841 5840 5838 5836 5833 5831 5828 5825 5822 5819 5816 5812 5809 5806 5802 5799 5796 5792 5789 5785 5781 5777 5773 5770 5766 5762 5758 5754 5749 5745
5837 5838 5838 5839 5840 5840 5840 5840 5840 5839 5839 5838 5837 5836 5835 5833 5831 5829 5827 5824 5821 5818 5815 5812 5809 5805 5802 5799 5796 5793 5790 5786 5783 5779 5775 5772 5768 5765 5761 5758 5754 5751 5747 5743